N61557 KOMA-KGRI

Flight info

Callsign N61557
Flight time N/A
Altitude 16000
Route OMA1 OVR V6 GRI
Aircraft C700/M-SBDGHM1RWXY/LB2

Departure

Time 2026-05-09 00:33
Airport Eppley Airfield (KOMA)

Arrival

Time N/A
Airport Central Nebraska Regional Airport (KGRI)
Time Latitude Longitude Altitude Speed Heading
2026-05-09 00:22 41.29583 -95.89809 980 ft 0 kts 178°
2026-05-09 00:27 41.29568 -95.89804 982 ft 7 kts 154°
2026-05-09 00:27 41.29560 -95.89716 982 ft 11 kts 90°
2026-05-09 00:27 41.29539 -95.89610 987 ft 12 kts 141°
2026-05-09 00:28 41.29449 -95.89609 988 ft 16 kts 179°
2026-05-09 00:28 41.29307 -95.89608 981 ft 24 kts 180°
2026-05-09 00:28 41.29155 -95.89608 986 ft 16 kts 176°
2026-05-09 00:28 41.29112 -95.89564 985 ft 3 kts 105°
2026-05-09 00:29 41.29109 -95.89444 980 ft 21 kts 90°
2026-05-09 00:29 41.29107 -95.89224 982 ft 25 kts 90°
2026-05-09 00:29 41.29107 -95.88976 980 ft 29 kts 90°
2026-05-09 00:29 41.29130 -95.88854 978 ft 8 kts 44°
2026-05-09 00:30 41.29165 -95.88776 985 ft 12 kts 69°
2026-05-09 00:30 41.29197 -95.88688 980 ft 0 kts 49°
2026-05-09 00:31 41.29204 -95.88679 976 ft 5 kts 46°
2026-05-09 00:31 41.29265 -95.88634 974 ft 17 kts 10°
2026-05-09 00:31 41.29388 -95.88712 982 ft 38 kts 323°
2026-05-09 00:31 41.29906 -95.89204 979 ft 141 kts 323°
2026-05-09 00:32 41.30929 -95.90178 1051 ft 211 kts 322°
2026-05-09 00:32 41.32188 -95.91349 1564 ft 240 kts 323°
2026-05-09 00:32 41.33494 -95.92590 1465 ft 214 kts 322°
2026-05-09 00:32 41.34646 -95.93679 1346 ft 192 kts 322°
2026-05-09 00:33 41.35678 -95.94647 1387 ft 172 kts 321°
2026-05-09 00:33 41.36636 -95.95552 1373 ft 165 kts 322°
2026-05-09 00:33 41.37577 -95.96383 1413 ft 165 kts 325°
2026-05-09 00:33 41.38537 -95.97187 1629 ft 168 kts 323°
2026-05-09 00:34 41.39619 -95.98090 1857 ft 186 kts 327°
2026-05-09 00:34 41.40614 -95.99173 3376 ft 178 kts 309°
2026-05-09 00:34 41.40968 -96.00602 5445 ft 169 kts 267°
2026-05-09 00:34 41.40231 -96.02124 6074 ft 246 kts 213°
2026-05-09 00:35 41.38448 -96.01852 6547 ft 301 kts 134°
2026-05-09 00:35 41.38115 -95.99219 8237 ft 289 kts 82°
2026-05-09 00:35 41.37949 -95.96440 9711 ft 324 kts 105°
2026-05-09 00:35 41.36722 -95.93759 10741 ft 359 kts 135°
2026-05-09 00:36 41.34583 -95.91884 11965 ft 381 kts 157°
2026-05-09 00:36 41.32024 -95.90690 13358 ft 397 kts 166°
2026-05-09 00:36 41.29317 -95.89720 14706 ft 409 kts 171°
2026-05-09 00:36 41.26454 -95.89249 15879 ft 424 kts 180°
2026-05-09 00:37 41.23458 -95.89582 15992 ft 431 kts 195°
2026-05-09 00:37 41.20749 -95.90817 15989 ft 406 kts 211°
2026-05-09 00:37 41.18422 -95.92874 15994 ft 401 kts 226°
2026-05-09 00:37 41.16646 -95.95506 15990 ft 396 kts 240°
2026-05-09 00:38 41.15416 -95.98717 15992 ft 386 kts 255°
2026-05-09 00:38 41.14867 -96.02153 16010 ft 377 kts 269°
2026-05-09 00:38 41.14754 -96.05620 16017 ft 377 kts 272°
2026-05-09 00:38 41.14617 -96.09102 16000 ft 379 kts 269°
2026-05-09 00:39 41.14356 -96.12600 16013 ft 382 kts 268°
2026-05-09 00:39 41.14087 -96.16118 16020 ft 384 kts 269°
2026-05-09 00:39 41.13876 -96.19640 16016 ft 382 kts 269°
2026-05-09 00:39 41.13675 -96.23155 16013 ft 380 kts 269°
2026-05-09 00:40 41.13464 -96.26408 16012 ft 380 kts 269°
2026-05-09 00:40 41.13228 -96.29901 16012 ft 381 kts 269°
2026-05-09 00:40 41.13000 -96.33395 16011 ft 381 kts 269°
2026-05-09 00:41 41.12549 -96.40402 16013 ft 382 kts 269°
2026-05-09 00:41 41.12316 -96.43910 16024 ft 382 kts 269°
2026-05-09 00:41 41.12084 -96.47420 16006 ft 382 kts 269°
2026-05-09 00:41 41.11852 -96.50923 16011 ft 381 kts 269°
2026-05-09 00:42 41.11619 -96.54418 16020 ft 380 kts 269°
2026-05-09 00:42 41.11386 -96.57902 16021 ft 379 kts 269°
2026-05-09 00:42 41.11151 -96.61388 16020 ft 379 kts 269°
2026-05-09 00:42 41.10915 -96.64871 16021 ft 380 kts 269°
2026-05-09 00:43 41.10679 -96.68360 16025 ft 381 kts 269°
2026-05-09 00:43 41.10443 -96.71811 16029 ft 381 kts 269°
2026-05-09 00:43 41.10202 -96.75319 16025 ft 382 kts 269°
2026-05-09 00:43 41.09961 -96.78826 16025 ft 382 kts 269°
2026-05-09 00:44 41.09719 -96.82323 16023 ft 380 kts 269°
2026-05-09 00:44 41.09479 -96.85792 16030 ft 378 kts 269°
2026-05-09 00:44 41.09237 -96.89263 16038 ft 378 kts 269°
2026-05-09 00:44 41.08995 -96.92734 15981 ft 381 kts 269°
2026-05-09 00:45 41.08750 -96.96232 15963 ft 379 kts 268°
2026-05-09 00:45 41.08509 -96.99699 15967 ft 377 kts 269°
2026-05-09 00:45 41.08268 -97.03174 15967 ft 378 kts 269°
2026-05-09 00:45 41.08024 -97.06656 15969 ft 380 kts 269°
2026-05-09 00:46 41.07778 -97.10141 15971 ft 381 kts 268°
2026-05-09 00:46 41.07530 -97.13626 15967 ft 379 kts 268°
2026-05-09 00:46 41.07282 -97.17108 15973 ft 378 kts 268°
2026-05-09 00:46 41.07039 -97.20520 15972 ft 377 kts 269°
2026-05-09 00:47 41.06791 -97.23991 15971 ft 379 kts 269°
2026-05-09 00:47 41.06540 -97.27479 15971 ft 381 kts 268°
2026-05-09 00:47 41.06286 -97.30979 15975 ft 380 kts 268°
2026-05-09 00:47 41.06032 -97.34460 15974 ft 380 kts 268°
2026-05-09 00:48 41.05779 -97.37937 15975 ft 379 kts 268°
2026-05-09 00:48 41.05525 -97.41407 15975 ft 378 kts 268°
2026-05-09 00:48 41.05270 -97.44874 15974 ft 378 kts 268°
2026-05-09 00:48 41.05013 -97.48344 15974 ft 378 kts 268°
2026-05-09 00:49 41.04757 -97.51812 15982 ft 376 kts 268°
2026-05-09 00:49 41.04503 -97.55114 15565 ft 348 kts 268°
2026-05-09 00:49 41.04255 -97.58298 14369 ft 347 kts 268°
2026-05-09 00:49 41.04015 -97.61417 13313 ft 341 kts 268°
2026-05-09 00:50 41.03772 -97.64522 12181 ft 339 kts 267°
2026-05-09 00:50 41.03343 -97.67561 11977 ft 336 kts 256°
2026-05-09 00:50 41.02364 -97.70502 11986 ft 363 kts 247°
2026-05-09 00:50 41.01146 -97.73489 11991 ft 371 kts 244°
2026-05-09 00:51 40.99871 -97.76457 11992 ft 370 kts 244°
2026-05-09 00:51 40.98675 -97.79400 11912 ft 327 kts 246°
2026-05-09 00:51 40.97711 -97.81789 9920 ft 266 kts 246°
2026-05-09 00:51 40.96771 -97.84216 8187 ft 312 kts 245°
2026-05-09 00:52 40.95778 -97.86678 8023 ft 290 kts 245°
2026-05-09 00:52 40.94847 -97.88932 7782 ft 274 kts 245°
2026-05-09 00:52 40.93945 -97.91166 7168 ft 275 kts 245°
2026-05-09 00:52 40.93051 -97.93387 6658 ft 273 kts 245°
2026-05-09 00:53 40.92154 -97.95600 6124 ft 272 kts 245°
2026-05-09 00:53 40.91263 -97.97789 5587 ft 270 kts 245°
2026-05-09 00:53 40.90378 -97.99968 5043 ft 268 kts 245°
2026-05-09 00:53 40.89501 -98.02128 4602 ft 264 kts 244°
2026-05-09 00:54 40.88628 -98.04274 3931 ft 267 kts 245°
2026-05-09 00:54 40.87777 -98.06361 3802 ft 254 kts 245°
2026-05-09 00:54 40.86932 -98.08435 3798 ft 255 kts 245°
2026-05-09 00:54 40.86094 -98.10499 3805 ft 262 kts 245°
2026-05-09 00:55 40.85220 -98.12645 3809 ft 267 kts 245°
2026-05-09 00:55 40.84338 -98.14797 3805 ft 265 kts 245°
2026-05-09 00:55 40.83461 -98.16939 3799 ft 266 kts 245°
2026-05-09 00:55 40.82585 -98.19088 3793 ft 267 kts 245°
2026-05-09 00:56 40.81702 -98.21249 3800 ft 267 kts 245°
2026-05-09 00:56 40.80821 -98.23399 3795 ft 266 kts 244°
2026-05-09 00:56 40.79941 -98.25548 3795 ft 265 kts 244°
2026-05-09 00:56 40.79066 -98.27677 3795 ft 265 kts 245°
2026-05-09 00:57 40.78188 -98.29820 3797 ft 266 kts 244°
2026-05-09 00:57 40.77286 -98.31956 3804 ft 267 kts 240°
2026-05-09 00:57 40.75910 -98.33590 3800 ft 274 kts 208°
2026-05-09 00:57 40.74029 -98.33998 3807 ft 279 kts 176°
2026-05-09 00:58 40.72199 -98.33119 3800 ft 284 kts 147°
2026-05-09 00:58 40.70899 -98.31253 3520 ft 273 kts 116°
2026-05-09 00:58 40.70523 -98.28903 3506 ft 260 kts 84°
2026-05-09 00:58 40.71109 -98.26691 3498 ft 265 kts 53°
2026-05-09 00:59 40.72502 -98.25143 3506 ft 265 kts 22°
2026-05-09 00:59 40.74314 -98.24740 3500 ft 260 kts 352°
2026-05-09 00:59 40.75935 -98.25587 3491 ft 255 kts 322°
2026-05-09 00:59 40.76976 -98.27435 3497 ft 255 kts 292°
2026-05-09 01:00 40.77124 -98.29752 3487 ft 256 kts 261°
2026-05-09 01:00 40.76432 -98.31842 3500 ft 240 kts 248°
2026-05-09 01:00 40.76222 -98.33878 3499 ft 214 kts 283°
2026-05-09 01:00 40.76937 -98.35444 3502 ft 196 kts 322°
2026-05-09 01:01 40.78207 -98.35967 3501 ft 198 kts
2026-05-09 01:01 40.79485 -98.35229 3511 ft 210 kts 39°
2026-05-09 01:01 40.80152 -98.33562 3506 ft 208 kts 78°
2026-05-09 01:01 40.79897 -98.31755 3499 ft 195 kts 112°
2026-05-09 01:02 40.79747 -98.30098 3477 ft 173 kts 65°
2026-05-09 01:02 40.80452 -98.29057 3504 ft 141 kts 14°
2026-05-09 01:02 40.81285 -98.29235 3479 ft 120 kts 315°
2026-05-09 01:02 40.81459 -98.30237 3499 ft 123 kts 252°
2026-05-09 01:03 40.80740 -98.30925 3529 ft 136 kts 188°
2026-05-09 01:03 40.79889 -98.30395 3498 ft 146 kts 122°
2026-05-09 01:03 40.79777 -98.29160 3510 ft 134 kts 57°
2026-05-09 01:03 40.80196 -98.28610 3536 ft 131 kts 18°
2026-05-09 01:04 40.81286 -98.29045 3519 ft 135 kts 304°
2026-05-09 01:04 40.81337 -98.30257 3505 ft 143 kts 251°
2026-05-09 01:04 40.80857 -98.30914 3478 ft 155 kts 213°
2026-05-09 01:04 40.79778 -98.30972 3500 ft 169 kts 161°
2026-05-09 01:05 40.78978 -98.29903 3485 ft 165 kts 108°
2026-05-09 01:05 40.79063 -98.28483 3493 ft 153 kts 53°
2026-05-09 01:05 40.80678 -98.28334 3498 ft 134 kts 305°
2026-05-09 01:06 40.80765 -98.29461 3483 ft 143 kts 255°
2026-05-09 01:06 40.79993 -98.30339 3488 ft 161 kts 201°
2026-05-09 01:06 40.78889 -98.30108 3490 ft 167 kts 150°
2026-05-09 01:06 40.78262 -98.28932 3539 ft 157 kts 108°
2026-05-09 01:07 40.78246 -98.27528 3741 ft 156 kts 62°
2026-05-09 01:07 40.79038 -98.26751 3712 ft 140 kts
2026-05-09 01:07 40.79952 -98.27086 3562 ft 139 kts 331°
2026-05-09 01:07 40.80768 -98.27689 3565 ft 131 kts 328°
2026-05-09 01:08 40.81579 -98.28275 3561 ft 133 kts 329°
2026-05-09 01:08 40.82397 -98.28927 3367 ft 136 kts 327°
2026-05-09 01:08 40.83166 -98.29609 3080 ft 125 kts 323°
2026-05-09 01:08 40.83912 -98.30083 2856 ft 119 kts 337°
2026-05-09 01:09 40.84646 -98.30388 2646 ft 105 kts 342°
2026-05-09 01:09 40.85353 -98.30649 2328 ft 109 kts 344°
2026-05-09 01:09 40.86155 -98.30888 2417 ft 116 kts 349°
2026-05-09 01:09 40.87006 -98.30928 2503 ft 128 kts
2026-05-09 01:10 40.87868 -98.30967 2504 ft 122 kts 352°
2026-05-09 01:10 40.88695 -98.31089 2381 ft 118 kts 351°
2026-05-09 01:10 40.89473 -98.31134 2288 ft 113 kts 358°
2026-05-09 01:10 40.90244 -98.31184 2082 ft 114 kts 356°
2026-05-09 01:11 40.91103 -98.31206 2539 ft 134 kts 355°
2026-05-09 01:11 40.92162 -98.31186 2691 ft 166 kts 358°
2026-05-09 01:11 40.93311 -98.31220 2575 ft 148 kts 352°
2026-05-09 01:11 40.94276 -98.31368 2351 ft 130 kts 349°
2026-05-09 01:12 40.95074 -98.31652 1868 ft 125 kts 340°
2026-05-09 01:12 40.95872 -98.32028 2210 ft 120 kts 346°
2026-05-09 01:12 40.96734 -98.32005 2570 ft 128 kts
2026-05-09 01:12 40.97611 -98.31798 2935 ft 127 kts
2026-05-09 01:13 40.98598 -98.31589 3159 ft 144 kts 359°
2026-05-09 01:13 40.99504 -98.32008 3582 ft 146 kts 313°
2026-05-09 01:13 40.99758 -98.33333 3719 ft 167 kts 258°
2026-05-09 01:13 40.99002 -98.34465 4088 ft 181 kts 211°
2026-05-09 01:14 40.97638 -98.34641 3827 ft 210 kts 174°
2026-05-09 01:14 40.96248 -98.34397 3635 ft 198 kts 177°
2026-05-09 01:14 40.95012 -98.34252 3372 ft 172 kts 178°
2026-05-09 01:14 40.93861 -98.34121 2952 ft 155 kts 179°
2026-05-09 01:15 40.92849 -98.34059 2526 ft 135 kts 182°
2026-05-09 01:15 40.91979 -98.34017 1855 ft 128 kts 187°